Temp
23 23 23 23 24 24 23 23 23 24 24 24 24 24 24 23 23 25 25 25 25 25 26 26 25 26 26 26 26 25 25 25 25 25 25 25 25 25 26 26 26 26 26 25 23 22 21 21 20 19 19 18 18 18 18 18 18 18 19 18 18 17 17 18 18 18 19 19 19 18 19 18 18 18 18 17 17 17 16 16 16 16 16 16 16 17
22 22 23 24 23 23 22 22 22 23 23 24 24 24 23 23 24 25 25 24 25 24 25 26 25 26 26 26 26 25 25 25 25 25 25 25 25 26 26 26 25 26 26 24 23 22 22 21 20 19 19 18 18 18 18 18 18 18 19 18 18 18 17 18 18 19 19 19 19 19 19 19 19 18 18 18 17 16 16 15 16 16 16 16 16 16
22 23 23 23 22 22 21 22 22 23 23 23 24 23 23 24 24 24 24 24 24 24 25 25 25 25 27 26 26 26 25 26 26 25 25 26 26 26 26 26 26 25 25 24 22 22 22 21 20 19 19 18 19 18 18 18 18 18 18 18 18 18 18 18 18 18 18 18 18 18 18 18 18 18 17 17 17 16 16 15 15 15 15 15 16 16
22 23 23 22 21 22 21 21 22 23 23 23 24 23 22 24 24 22 23 24 24 23 24 25 24 25 26 26 26 26 26 25 25 24 25 25 25 26 26 26 26 25 25 24 23 22 22 22 21 20 19 18 18 18 18 18 18 18 18 18 18 18 18 18 18 18 18 17 17 17 17 17 17 17 16 16 16 16 16 15 15 15 15 15 15 15
23 23 23 22 21 22 22 22 22 23 23 23 23 23 23 24 23 23 23 24 24 23 23 24 23 23 26 26 26 26 25 24 24 24 24 24 25 25 25 25 25 25 25 25 24 23 22 22 21 20 20 19 18 19 18 18 18 18 18 18 18 18 18 18 18 17 17 17 17 17 17 17 17 17 16 17 17 16 16 16 15 15 15 15 15 15
23 21 21 22 22 22 23 22 23 23 23 23 23 24 24 24 24 24 24 23 22 22 23 23 21 21 24 25 26 26 25 25 25 25 25 25 25 25 24 25 25 25 24 24 24 24 23 22 22 21 20 19 19 19 18 18 18 18 18 18 18 18 18 18 17 17 17 17 17 17 17 18 18 18 17 18 17 17 16 16 15 15 15 15 15 15
23 20 21 22 22 22 23 23 24 23 22 22 23 24 24 24 24 23 23 22 21 21 22 23 21 21 23 24 25 25 25 26 25 25 25 25 25 25 25 25 25 24 24 24 24 24 24 23 22 21 20 20 20 19 18 18 17 18 18 18 18 18 18 17 17 17 17 18 17 18 18 18 19 19 18 17 17 17 16 16 15 15 15 15 15 15
22 22 21 22 22 23 23 23 23 24 23 21 22 24 24 24 23 23 23 22 22 22 22 23 23 21 21 23 25 25 25 25 26 25 25 25 24 24 25 25 25 24 24 24 23 23 24 23 23 22 21 20 20 19 18 17 17 18 18 18 18 18 18 17 17 17 17 18 18 18 18 19 19 19 18 17 17 16 16 15 15 15 15 15 15 15
22 22 22 22 22 23 24 24 24 23 23 22 22 24 24 24 24 23 23 22 22 22 21 22 23 21 21 23 25 25 24 25 25 25 25 24 24 24 24 23 23 23 23 23 23 23 23 23 23 22 21 20 20 19 18 18 17 18 18 17 18 18 18 17 17 17 17 18 18 18 18 19 19 18 18 17 17 16 16 15 15 15 15 15 15 14
22 22 23 23 23 23 24 24 23 23 23 22 22 23 24 24 24 23 23 22 22 21 20 21 22 21 21 22 23 24 23 24 24 25 24 24 24 24 23 22 23 23 23 23 23 23 23 23 23 22 21 20 20 19 18 18 17 17 17 17 17 18 18 17 17 17 17 18 18 18 18 18 18 18 18 18 17 16 16 16 15 15 15 15 15 14
23 21 21 22 23 24 23 22 21 22 22 22 23 23 23 23 23 23 23 22 21 20 21 21 21 21 20 21 23 23 22 23 23 24 24 24 24 23 22 22 22 22 22 22 23 23 23 22 22 21 21 20 19 19 18 18 17 17 17 17 17 18 18 17 17 17 17 17 18 18 18 18 18 18 17 17 17 16 16 16 16 16 16 15 15 14
23 22 22 23 23 23 23 22 21 21 22 23 23 23 22 22 22 22 22 21 20 20 21 21 21 21 20 21 23 23 22 22 22 22 23 23 23 22 21 22 22 21 21 22 22 22 22 22 21 21 20 20 19 18 18 18 17 17 17 17 17 17 18 17 17 17 17 17 18 18 18 18 18 17 17 17 17 17 17 17 16 16 16 15 15 15
23 24 23 23 22 22 23 23 22 22 22 23 23 22 21 20 20 20 20 20 20 20 21 21 21 20 21 21 22 22 22 22 21 21 21 21 21 21 21 21 21 21 21 21 21 21 21 21 21 20 20 20 19 18 18 17 17 18 17 17 17 17 18 17 17 17 17 17 18 18 18 18 18 18 18 18 17 17 17 17 17 17 16 16 15 15
22 24 24 22 22 23 23 23 22 22 22 22 22 21 20 20 20 20 20 20 20 20 21 21 20 20 21 22 22 22 21 21 21 21 20 20 20 20 20 21 21 21 21 21 21 21 20 20 20 20 20 20 19 18 18 18 17 17 17 17 18 18 18 17 17 17 17 17 17 18 18 18 18 18 18 18 18 17 17 17 17 17 17 16 16 15
21 21 22 23 22 22 23 23 23 23 23 23 24 23 21 20 20 20 20 20 20 20 20 20 20 20 21 21 21 21 21 21 21 21 20 20 20 20 20 21 20 20 20 20 20 20 19 20 20 20 20 19 18 18 18 18 17 17 17 18 18 18 18 17 17 17 17 17 17 17 17 18 18 18 18 18 18 17 17 17 17 17 17 17 16 16
20 21 22 22 22 22 23 23 24 23 23 23 24 23 21 21 21 20 20 19 19 20 20 20 20 21 21 20 21 21 21 21 21 21 21 20 20 20 20 20 20 19 19 19 19 19 19 19 19 19 19 18 18 18 17 17 17 17 18 18 18 18 18 17 17 17 17 17 17 17 17 17 17 18 18 18 18 17 17 17 17 17 17 17 16 16
20 21 22 22 21 22 22 23 23 23 22 22 22 22 22 23 23 20 19 19 18 19 20 20 21 21 21 21 21 21 21 21 21 21 21 20 20 20 19 19 19 19 18 18 18 18 18 19 19 19 19 18 18 18 17 17 17 18 18 18 17 18 18 17 17 17 17 17 17 17 17 17 17 17 17 18 17 17 17 17 17 17 17 16 16 15
20 21 23 23 22 21 21 22 23 23 22 22 21 22 23 23 22 21 20 19 19 19 20 20 20 20 20 20 21 21 21 21 21 21 21 20 20 20 19 19 18 18 18 18 17 16 17 18 18 18 18 18 18 18 18 17 18 18 18 18 17 17 18 17 17 17 17 17 17 17 17 17 17 17 17 17 17 17 17 17 17 17 17 16 16 15
20 20 22 23 22 21 21 22 22 22 22 22 22 23 23 21 21 21 20 19 19 19 20 20 20 20 20 21 21 21 21 21 21 21 21 20 20 19 19 18 18 18 18 18 17 16 15 16 16 17 17 17 17 17 17 17 17 17 17 18 17 17 17 17 17 16 16 16 17 17 17 17 17 17 17 17 17 16 16 16 17 17 16 16 16 15
20 20 20 22 22 22 22 22 21 21 22 22 22 23 23 21 21 21 20 20 20 19 19 20 20 20 21 22 22 22 22 21 21 21 20 20 19 18 18 18 17 17 17 17 17 16 15 15 15 15 16 16 16 16 17 17 17 17 17 17 17 17 17 17 17 16 16 16 17 17 16 16 17 17 17 17 16 16 16 16 17 16 16 16 16 15
20 19 19 21 22 21 21 22 21 21 22 21 21 21 21 21 21 21 21 21 20 19 19 19 19 20 22 23 23 23 22 21 21 21 20 19 18 18 17 17 17 17 16 16 17 17 16 17 16 15 15 15 15 14 15 15 16 16 16 17 17 17 17 17 17 16 16 16 16 16 16 16 17 16 17 17 16 16 16 16 16 16 16 16 16 16
20 19 19 20 21 21 21 21 21 21 21 21 21 21 21 21 21 20 20 21 21 20 20 19 19 20 21 22 23 23 22 21 21 20 19 19 18 17 16 16 16 16 16 16 16 16 17 17 17 16 16 15 14 13 13 13 14 15 15 16 16 17 17 17 17 17 17 17 16 16 16 16 16 16 16 16 16 16 16 16 16 16 16 16 16 16
18 19 19 19 20 21 21 20 19 19 20 20 21 21 22 21 21 20 19 20 20 20 20 20 19 20 19 20 21 21 20 20 20 20 19 19 18 17 16 16 16 16 16 16 16 16 17 17 17 17 17 16 15 15 14 13 13 13 14 14 14 15 15 16 16 16 17 17 17 16 16 16 16 16 16 16 16 16 16 16 16 16 16 16 16 16
17 18 19 19 20 21 21 20 19 19 19 20 20 21 21 21 21 20 20 20 19 19 20 19 19 19 18 18 19 19 19 19 19 19 19 18 17 17 16 16 16 16 16 16 16 17 17 17 17 17 17 17 16 15 15 15 14 14 13 13 13 14 14 14 15 15 16 16 16 16 16 16 16 16 16 16 16 16 16 16 16 16 16 16 16 16
18 18 18 18 18 19 19 20 19 19 19 20 20 20 19 20 20 19 19 19 19 19 20 18 18 19 18 17 18 19 19 19 19 19 19 18 17 17 17 16 16 16 16 16 16 16 17 17 17 17 17 17 16 16 15 15 15 14 14 13 13 13 13 14 14 15 15 16 16 16 15 15 15 15 16 16 16 16 16 16 16 16 15 16 16 16
18 18 18 17 17 17 18 19 19 19 19 20 20 19 19 19 19 18 19 18 18 18 19 18 19 19 18 18 18 18 18 19 18 18 18 18 17 17 17 16 16 16 16 16 16 16 16 16 17 16 16 16 16 16 16 15 15 15 14 14 13 13 13 13 13 14 14 15 15 15 15 15 15 15 16 16 16 16 16 15 15 15 15 15 16 16
17 18 17 17 17 17 18 19 19 18 18 19 19 19 19 19 18 18 18 18 18 18 18 18 19 19 18 18 18 18 18 18 18 18 18 18 17 16 16 16 16 16 16 16 16 16 16 15 16 16 15 15 16 15 15 15 15 14 14 14 13 13 13 13 13 14 14 14 15 15 15 15 15 15 16 16 16 16 16 16 15 15 15 15 15 16
17 17 17 17 17 18 18 19 19 18 17 18 18 18 18 18 18 18 17 18 19 18 17 19 19 18 19 20 19 18 18 18 18 18 18 18 17 16 16 16 16 16 16 16 16 16 15 15 15 15 15 15 15 15 15 15 15 14 14 13 13 13 12 12 12 13 13 14 14 15 15 15 15 15 16 16 16 16 16 16 15 15 15 15 15 15
16 16 17 17 17 17 18 18 18 17 17 17 17 17 18 18 17 17 17 18 18 17 17 19 19 18 19 20 20 20 19 19 19 19 18 18 17 17 16 16 16 16 16 16 16 15 15 15 15 15 14 14 15 15 15 15 14 14 14 13 13 13 12 12 12 12 13 13 14 14 14 14 14 15 15 15 15 16 16 16 15 15 15 15 14 14
16 16 16 17 16 17 17 17 17 17 17 17 17 17 17 17 17 17 17 17 18 17 18 18 17 17 18 19 20 20 19 19 19 19 18 17 17 16 16 16 16 16 16 16 15 15 15 15 15 15 14 14 14 14 14 14 14 14 14 13 13 13 13 12 13 13 13 13 14 13 14 14 14 14 15 15 15 15 15 15 15 15 15 15 14 14
15 15 15 15 15 15 16 17 17 17 16 16 16 17 17 17 17 17 16 17 17 16 17 17 15 15 18 19 19 19 18 19 19 18 17 17 17 16 16 16 16 16 16 16 15 15 15 15 15 15 14 14 14 14 14 13 14 14 14 13 13 13 13 13 13 13 13 14 14 14 14 15 14 15 15 15 15 15 15 15 15 15 15 14 14 14
14 15 15 15 14 14 16 16 16 17 16 16 16 16 16 16 16 16 16 16 16 15 15 15 15 15 17 19 19 18 18 18 18 18 17 17 16 16 16 16 16 16 16 15 15 15 15 14 15 14 14 14 14 14 14 13 13 14 13 13 13 12 12 12 12 13 13 14 14 14 15 15 15 15 15 15 15 15 15 15 15 15 15 14 14 13
15 14 15 15 14 14 15 16 15 15 14 14 15 15 16 16 16 16 16 16 16 16 15 15 15 16 16 17 18 18 18 18 18 18 17 16 16 16 16 16 16 15 15 15 15 15 14 14 14 14 13 13 13 13 13 13 13 13 12 12 12 12 12 12 13 13 13 13 14 14 14 14 15 15 15 15 15 15 15 15 15 15 15 14 14 13
14 14 14 14 14 13 15 15 13 13 13 13 14 14 15 15 15 15 16 16 16 15 15 15 16 15 15 16 16 16 17 17 17 16 16 16 15 15 16 16 15 15 15 15 15 14 14 14 14 13 13 13 13 13 12 13 13 12 12 12 12 12 12 12 13 13 13 13 13 14 14 14 14 15 15 15 15 14 14 14 14 14 14 14 13 13
13 13 13 14 13 13 14 13 11 11 12 13 14 14 14 14 14 14 14 14 13 13 13 14 14 15 14 14 15 15 15 15 15 15 15 15 15 15 15 15 15 15 15 14 14 14 14 14 13 13 13 12 12 12 12 13 13 12 12 12 12 12 12 12 12 13 13 13 13 13 13 14 14 14 14 14 14 14 14 14 14 14 14 13 13 13
13 12 13 13 13 13 13 12 11 12 13 14 14 14 13 13 13 13 13 12 12 12 13 13 13 14 13 13 13 14 14 14 15 15 15 14 14 14 14 14 14 14 14 14 14 13 13 13 13 13 12 12 12 12 12 13 12 12 12 12 12 12 12 12 12 13 13 13 13 13 13 13 13 13 14 14 14 14 14 14 13 13 13 13 12 12
13 13 13 13 13 12 12 12 13 13 13 13 13 12 12 12 12 12 12 12 12 12 12 13 13 13 13 13 13 13 13 14 14 14 14 14 14 13 14 14 14 14 14 14 13 13 13 13 12 12 12 12 12 12 12 12 12 12 12 12 12 12 12 12 12 13 13 13 13 12 12 12 13 13 13 13 14 14 14 13 13 13 13 12 11 11
13 13 13 12 12 12 12 12 12 12 12 12 12 11 11 11 11 11 11 12 12 12 12 12 13 13 13 13 13 13 13 13 13 14 14 13 13 13 13 14 14 14 14 14 13 13 13 12 12 12 12 12 12 12 12 12 12 12 12 12 12 12 12 12 13 13 13 13 12 12 12 12 12 12 13 13 13 14 14 13 13 13 12 12 11 11
12 13 13 12 12 12 11 10 10 11 11 11 11 11 11 11 11 11 11 11 11 11 12 12 12 12 12 12 12 13 13 12 13 14 13 13 13 13 13 13 14 13 13 13 13 13 12 12 12 12 12 12 12 12 12 12 12 12 12 12 12 12 12 12 12 12 12 12 12 11 11 11 11 12 12 13 13 13 13 13 12 12 12 11 11 10
11 12 12 11 11 11 11 10 11 12 11 11 10 11 11 11 10 10 10 9 9 10 11 12 11 12 12 12 12 12 12 12 14 14 13 12 13 13 13 13 13 13 13 13 13 12 12 12 12 12 12 12 12 12 12 12 12 12 11 11 11 11 12 12 12 12 12 12 11 11 11 11 11 11 11 12 12 12 12 12 12 12 11 10 9 9
11 11 11 11 11 11 11 10 11 12 11 10 10 11 10 10 10 9 9 8 8 9 10 11 11 11 12 12 11 12 12 13 13 13 12 12 13 13 13 13 12 12 13 12 12 11 11 11 12 11 12 12 11 11 11 11 11 11 11 11 11 11 11 11 12 12 11 11 11 11 11 11 11 11 11 11 11 12 12 12 12 11 10 9 8 8
10 10 10 10 10 11 11 10 10 11 10 9 10 11 10 9 9 9 9 9 9 10 10 10 10 11 11 11 11 11 12 12 12 12 12 12 12 12 12 13 12 12 12 12 12 11 11 11 11 11 11 11 11 11 11 11 11 11 11 11 11 11 11 11 11 11 11 11 11 11 11 11 10 10 10 11 11 11 11 11 11 10 9 8 8 7
9 9 9 10 10 10 10 9 9 9 9 9 10 10 10 9 9 9 9 10 10 10 10 10 10 10 10 11 11 11 11 11 11 11 11 11 11 11 12 12 12 12 12 12 12 12 12 12 11 11 11 11 11 11 11 11 11 11 11 11 11 11 11 11 11 11 11 11 11 11 10 10 10 10 10 10 10 11 11 10 9 8 8 7 7 7
9 8 8 10 10 9 8 9 9 9 9 10 9 9 9 9 10 10 10 10 10 10 10 10 10 10 11 10 10 10 11 11 11 11 11 11 11 11 12 12 12 12 12 12 12 11 11 11 11 11 11 11 11 11 11 11 11 11 11 11 11 10 11 11 11 11 11 10 10 10 10 10 10 9 9 9 10 10 9 8 7 7 7 7 6 6
9 9 8 8 9 8 8 9 9 9 10 10 10 9 10 10 10 10 9 9 10 10 10 10 10 10 10 10 10 10 10 10 10 10 10 11 11 11 11 12 12 11 11 11 11 11 11 11 11 11 11 11 11 10 10 10 10 10 10 10 10 10 10 10 10 10 10 10 10 10 10 10 10 9 9 9 9 8 7 6 6 6 6 6 6 6
10 9 8 8 8 8 9 9 9 9 10 10 10 10 10 10 10 10 10 10 10 10 10 10 10 10 10 9 9 9 9 10 10 10 11 11 10 11 11 12 12 11 11 11 11 11 11 11 11 11 11 11 10 10 10 10 10 10 10 10 10 10 10 10 10 10 10 11 10 10 10 10 10 9 9 8 7 7 6 6 5 5 5 6 6 6
9 8 7 7 8 7 8 9 9 9 9 10 10 10 10 10 10 10 10 9 10 10 10 10 9 10 10 9 9 9 10 10 10 10 10 10 10 11 11 12 12 11 11 11 11 11 11 11 11 11 11 11 10 10 10 10 10 10 10 10 11 11 10 10 10 10 10 10 10 10 10 10 9 8 7 7 6 6 6 5 5 5 6 6 6 6
8 7 7 7 8 7 7 8 9 9 10 10 10 10 10 10 10 10 9 9 9 9 9 9 10 9 9 10 10 10 10 10 10 10 10 10 10 10 11 11 11 11 11 10 10 10 10 10 10 10 10 10 10 10 10 10 10 10 10 11 11 10 10 10 10 9 9 10 10 10 10 9 8 7 6 6 6 6 5 5 5 5 6 6 6 6
8 7 7 7 7 7 8 9 9 9 9 9 10 10 10 9 9 9 8 8 8 8 8 9 9 9 9 9 9 9 9 9 10 10 10 10 10 10 10 11 10 10 10 10 10 10 10 10 10 10 10 10 10 10 10 10 10 10 10 10 10 10 9 9 9 9 9 9 9 9 9 7 6 6 6 6 5 5 5 5 5 5 5 6 6 7
8 7 7 7 6 7 8 8 8 7 7 8 9 9 9 8 8 8 8 7 8 8 7 7 8 8 9 9 9 9 9 9 9 9 9 9 9 10 10 10 9 9 9 9 9 9 9 10 10 10 10 10 10 9 9 9 9 9 9 9 9 9 9 9 9 8 8 9 9 8 7 6 6 6 6 5 5 5 5 5 6 6 6 6 6 7
7 7 7 6 6 6 7 8 8 7 6 7 8 8 8 8 7 7 7 7 7 7 7 6 6 6 7 8 9 9 8 8 9 9 9 9 9 9 9 9 9 9 9 9 9 9 9 9 9 9 9 9 9 9 9 8 8 8 9 9 9 8 9 9 9 8 8 8 8 7 7 6 6 6 6 5 5 4 4 4 5 6 6 6 6 6
Height
767 771 769 766 765 765 768 768 767 766 766 765 763 762 761 761 760 757 761 762 760 763 759 759 762 759 758 756 756 758 760 760 760 760 762 761 761 760 760 760 760 762 763 767 771 775 778 780 782 785 787 789 791 793 794 796 798 800 802 803 805 806 807 809 810 811 812 812 813 814 814 815 816 817 817 818 819 819 820 820 820 821 821 821 822 822
771 772 768 764 766 769 770 771 771 770 769 768 765 763 762 762 759 757 763 763 762 765 760 759 763 758 756 756 755 757 760 761 759 760 761 760 760 759 759 760 760 761 762 766 771 773 776 779 781 784 786 788 790 791 793 795 797 799 801 803 804 805 807 808 809 810 811 812 813 814 814 815 816 817 818 819 820 820 820 821 821 821 821 821 822 822
773 769 765 766 769 772 773 772 772 771 771 769 765 764 764 760 758 761 765 764 763 766 761 760 764 758 753 754 754 755 757 757 756 757 758 758 759 759 758 759 759 761 762 765 769 771 774 776 779 782 784 786 788 790 792 794 796 798 800 801 803 804 806 808 809 810 811 812 813 814 814 815 816 817 818 819 820 821 821 821 821 821 821 821 822 822
771 765 764 768 770 772 774 774 773 771 770 768 765 766 765 760 763 767 767 766 765 767 764 763 766 759 752 753 753 753 754 755 757 757 757 758 758 758 757 757 758 760 761 763 766 769 771 774 776 778 781 783 786 788 790 792 794 796 798 800 802 804 806 807 808 810 811 812 813 814 815 815 816 817 819 820 821 821 822 822 822 822 822 822 822 822
765 764 766 769 772 771 772 774 773 770 767 767 766 765 763 762 765 765 765 767 766 769 768 765 768 759 750 754 752 751 755 756 757 758 759 759 758 758 757 757 757 758 759 761 763 765 768 770 772 774 777 780 783 785 787 789 792 794 796 799 800 803 805 807 808 809 810 811 813 814 815 816 816 818 819 820 821 821 822 822 822 822 822 822 823 823
764 770 770 770 772 769 771 771 769 768 766 766 767 764 762 763 765 764 766 769 769 773 770 768 777 766 751 754 754 752 755 755 755 757 757 757 757 758 759 758 758 757 758 758 759 761 763 766 769 772 775 777 780 782 785 787 789 792 795 797 800 802 804 806 808 809 810 811 812 813 814 815 816 817 819 819 820 821 822 822 823 823 823 823 823 824
765 771 771 771 771 769 770 767 764 765 766 766 763 759 760 762 766 767 767 771 773 773 769 768 778 773 758 754 754 753 755 753 754 757 757 757 757 757 756 757 757 757 757 758 758 759 760 763 766 769 771 774 777 780 783 786 788 791 794 796 798 801 803 805 807 808 810 811 812 813 813 814 815 816 818 819 820 822 822 823 823 824 824 824 824 825
766 770 772 771 770 769 767 763 762 763 765 767 762 757 759 761 766 768 767 770 768 767 769 766 769 776 769 757 753 755 756 754 753 756 757 757 758 758 757 756 756 757 757 757 758 758 758 761 762 765 768 771 774 778 781 783 786 789 792 794 797 799 801 803 806 807 809 810 811 812 813 814 815 816 817 819 820 822 823 823 824 824 825 825 825 826
766 769 771 769 770 767 759 757 760 761 764 767 764 759 758 760 764 764 765 766 766 772 776 766 766 779 772 756 753 756 757 756 754 756 757 757 758 759 759 759 758 758 758 757 757 756 757 758 760 763 766 769 773 776 778 781 784 787 790 793 795 798 799 801 803 806 807 809 810 811 812 813 814 815 817 819 820 822 823 824 825 825 826 826 826 827
765 765 765 765 768 763 756 758 760 761 764 765 763 760 759 761 762 764 765 763 768 781 780 767 769 779 772 756 754 757 757 758 757 756 757 756 757 758 759 760 759 758 758 756 755 755 755 757 758 761 763 766 770 773 776 779 782 786 788 791 794 796 798 800 802 804 806 808 809 810 811 812 813 815 816 818 820 821 822 824 825 825 826 826 827 827
761 764 765 765 763 759 758 764 765 763 764 763 762 761 762 763 761 764 763 762 776 784 776 768 769 778 778 760 752 759 762 762 762 759 758 757 757 758 759 760 758 758 757 756 754 753 754 756 758 760 762 765 768 771 774 778 780 783 786 789 792 795 797 799 800 803 805 807 808 809 810 811 812 814 815 817 818 820 821 823 824 825 826 826 827 827
759 764 763 760 759 759 761 764 766 765 763 763 763 763 769 770 768 770 768 772 787 785 772 769 769 778 783 765 755 762 763 763 766 763 762 761 760 760 761 760 759 758 757 755 754 753 753 755 757 759 762 764 767 769 772 776 778 782 785 788 791 793 796 798 799 802 804 805 807 808 809 811 812 813 814 816 818 819 820 822 823 824 825 826 827 827
757 755 755 758 759 759 761 763 766 766 764 764 764 767 777 781 782 785 779 777 782 776 770 770 773 780 776 762 760 764 762 763 766 765 764 764 763 763 762 760 759 758 757 755 754 753 753 754 756 758 761 763 766 768 771 774 777 780 783 786 788 791 793 795 798 800 802 804 805 807 809 810 811 812 814 815 817 819 820 821 822 823 825 826 826 827
759 752 753 759 760 757 758 760 765 766 763 765 764 770 780 784 791 794 782 775 774 773 771 770 777 780 768 760 763 763 764 766 765 766 767 766 766 765 762 760 759 758 758 756 754 754 754 754 756 758 760 763 765 768 770 773 776 779 781 784 786 789 791 794 796 799 801 802 804 806 808 810 811 812 813 815 816 818 819 820 822 823 824 825 826 827
769 765 758 758 759 759 757 755 756 758 759 759 755 760 771 776 785 790 781 776 773 772 775 778 782 777 767 766 765 762 765 765 764 766 766 766 766 764 763 761 761 760 759 758 756 756 757 756 758 759 760 763 766 768 770 772 775 777 780 783 785 788 790 792 794 796 799 801 803 805 807 809 810 811 812 814 815 816 817 819 820 821 822 823 825 826
773 767 756 757 758 757 758 753 752 756 759 756 751 758 766 763 767 778 781 781 779 778 778 779 775 763 761 766 763 762 765 763 765 766 765 767 765 764 765 763 763 762 761 761 760 759 759 758 759 761 762 765 767 769 771 773 775 777 780 782 784 786 788 790 793 795 797 800 802 803 805 806 808 809 811 812 813 814 815 817 818 820 821 822 824 825
773 766 754 756 759 756 758 755 753 758 761 759 759 762 758 751 756 773 784 785 788 788 777 769 768 761 763 767 761 762 765 763 766 765 765 767 766 766 768 766 766 765 763 763 763 762 761 760 760 762 764 766 768 770 772 773 775 777 779 782 784 786 788 789 792 794 796 799 800 802 803 804 805 807 808 810 811 812 814 815 817 818 820 821 822 824
772 768 754 754 760 758 758 757 754 755 757 760 764 758 751 753 758 767 781 783 786 787 772 764 771 768 766 768 764 762 766 765 765 765 766 768 767 769 770 769 769 767 766 766 765 766 765 763 763 763 765 768 769 771 772 774 776 778 779 781 783 785 787 789 791 793 795 797 799 800 801 803 804 805 806 807 809 810 811 813 815 817 818 819 821 822
772 773 759 752 759 759 755 759 759 756 754 756 758 752 755 769 770 768 779 783 782 785 774 765 767 764 759 760 763 763 764 765 765 764 766 768 769 771 771 772 772 770 769 768 767 768 768 768 767 766 768 769 770 772 773 775 777 779 780 782 783 785 787 789 791 792 794 796 797 799 800 801 802 803 805 805 806 807 809 810 812 814 816 818 819 820
771 777 770 755 755 759 755 758 761 758 755 756 756 753 754 765 767 766 771 773 776 782 778 770 768 762 750 746 752 757 757 761 764 765 767 769 771 773 774 774 774 773 773 771 770 771 771 771 771 770 771 771 772 774 774 776 779 780 782 783 784 785 787 789 790 792 793 795 796 797 798 799 800 801 803 804 805 806 806 808 809 811 814 815 817 818
770 779 778 760 754 761 759 757 758 756 756 758 760 760 758 760 761 763 762 761 768 776 777 777 773 759 746 739 743 749 753 758 762 764 767 771 773 774 776 777 776 776 776 775 773 773 772 773 773 774 774 773 774 776 776 778 779 782 784 785 784 785 786 788 790 791 792 793 795 796 797 798 799 800 801 802 803 804 805 806 807 809 811 812 814 816
772 777 779 769 762 763 760 757 759 760 760 760 759 757 756 758 762 771 770 758 760 767 768 773 772 759 749 745 742 746 754 758 760 763 768 771 774 776 778 779 779 778 778 777 776 775 775 775 775 775 776 776 777 780 780 779 780 784 788 787 786 785 786 788 789 790 792 792 794 795 796 797 798 799 799 800 801 802 803 804 805 807 808 810 812 813
777 776 777 775 767 759 757 760 763 764 762 761 761 756 754 756 760 771 774 763 761 764 761 766 770 763 758 756 752 754 759 760 761 764 768 771 775 777 778 780 780 780 780 779 778 777 777 777 777 778 778 779 781 782 782 781 782 788 790 788 786 786 788 788 789 790 791 792 792 793 794 796 797 798 798 798 798 800 801 803 804 805 806 807 809 810
780 777 777 775 765 755 755 759 761 764 764 764 761 758 759 759 759 764 766 764 767 767 765 772 774 765 763 764 762 764 764 764 766 767 768 773 776 778 779 780 781 781 781 781 780 779 778 779 779 780 780 781 781 782 782 783 786 790 791 788 786 787 788 788 789 790 791 791 792 793 793 794 796 798 797 796 796 797 798 800 802 803 804 805 807 808
780 777 777 780 775 769 767 765 764 765 764 762 760 761 764 762 762 766 765 766 772 767 764 773 771 763 765 767 766 767 767 767 769 769 770 774 776 778 779 780 781 782 782 782 781 781 780 780 781 782 782 782 783 784 785 786 788 789 790 788 787 788 789 787 789 790 791 791 791 791 791 792 795 798 797 796 795 795 796 798 799 801 801 803 804 805
779 777 778 784 785 783 778 771 768 767 763 761 762 766 767 765 766 770 769 771 775 769 765 770 766 760 765 768 767 768 769 769 770 772 773 774 776 778 779 781 782 782 782 783 783 783 782 782 783 784 785 785 785 786 787 788 789 789 789 788 787 788 788 787 788 789 790 790 789 789 790 792 795 796 795 795 794 793 794 795 797 798 799 800 801 802
780 778 778 781 780 777 772 764 763 769 769 767 767 766 767 768 768 770 771 771 770 769 768 765 760 761 764 765 766 769 770 770 771 773 773 774 777 779 780 782 782 782 783 783 783 784 783 784 785 785 786 787 787 787 788 788 789 789 789 789 787 787 787 788 789 790 791 791 790 790 792 793 794 793 792 791 791 791 792 793 794 795 796 797 798 799
782 781 778 778 777 773 769 765 765 771 774 772 770 768 767 768 770 773 774 769 764 770 769 758 757 764 762 758 761 765 768 769 769 771 771 772 776 778 780 782 782 782 782 783 784 784 784 785 786 786 787 787 787 788 788 788 789 789 789 789 789 788 788 790 792 792 793 792 791 791 792 792 791 790 789 789 788 789 789 791 792 793 794 795 795 796
783 782 777 776 778 774 770 769 770 773 774 772 771 771 770 769 771 773 774 768 766 771 768 758 759 765 761 755 756 758 762 765 765 767 769 771 774 777 779 781 781 781 782 783 784 784 784 785 786 787 787 787 787 787 787 788 789 790 790 790 790 791 791 791 792 793 792 791 791 791 790 790 789 788 788 787 786 787 787 789 790 791 792 792 792 793
785 783 777 777 779 775 771 770 770 772 774 772 771 770 770 770 769 770 770 767 765 766 763 761 765 765 761 757 755 756 758 760 761 765 768 771 775 777 778 779 780 781 782 783 784 784 785 786 786 787 788 788 788 788 787 788 788 789 791 791 792 792 791 792 792 792 791 790 790 790 789 789 788 787 786 785 784 784 785 786 787 788 789 789 789 790
787 785 781 782 783 778 773 770 769 770 771 771 769 767 766 767 768 768 769 768 768 767 765 767 772 770 762 757 756 757 760 760 762 766 769 770 773 775 777 778 779 780 781 782 784 784 785 786 787 788 788 788 789 789 788 789 789 789 790 791 791 791 791 790 790 790 790 789 789 789 788 788 787 786 785 783 783 782 783 784 785 785 786 786 787 788
788 785 782 785 787 780 773 771 770 769 769 769 768 766 767 768 768 768 768 767 769 772 771 772 772 768 761 756 755 757 761 762 762 764 768 770 772 774 776 777 778 780 781 782 784 785 786 787 787 788 789 789 789 789 789 789 789 789 790 790 791 790 789 789 788 788 788 788 788 787 787 786 785 784 783 782 781 781 781 781 782 783 783 784 785 785
786 785 783 784 785 780 774 773 774 776 777 773 768 766 767 767 767 766 764 764 765 769 771 770 767 765 763 761 759 758 759 760 760 763 767 770 771 773 774 776 778 780 781 783 784 785 786 787 788 789 789 789 789 789 789 788 789 789 789 790 790 789 788 787 787 787 787 786 786 785 784 784 783 782 781 780 780 779 779 779 780 780 781 782 782 783
787 789 786 782 784 783 776 776 784 788 783 775 768 768 769 770 770 769 765 764 765 767 769 767 765 765 766 766 765 763 762 762 764 767 769 770 771 773 774 776 778 780 782 783 784 785 786 787 788 789 789 789 789 789 789 789 788 788 788 788 788 787 787 786 786 786 785 785 784 783 782 782 781 780 779 779 778 778 778 778 778 778 779 780 780 781
789 791 787 783 785 783 777 784 798 794 779 771 770 771 774 774 774 773 771 771 773 774 773 771 769 769 770 769 769 768 768 768 769 770 771 772 772 773 774 776 777 779 781 782 783 785 786 787 788 788 788 789 789 788 788 787 787 787 787 786 786 785 785 785 784 784 783 783 782 781 780 780 779 778 778 777 776 776 775 775 775 776 777 778 778 779
789 790 787 784 785 784 783 790 794 783 770 769 772 773 775 775 774 775 775 777 779 778 775 774 772 772 774 774 773 772 771 771 770 770 772 774 775 775 776 776 778 779 781 782 783 785 786 786 787 787 787 787 787 787 786 786 786 786 785 785 785 784 784 783 783 782 781 781 780 779 779 778 777 777 776 775 774 773 773 773 773 774 775 776 776 776
786 785 785 785 783 784 784 781 776 772 769 770 774 778 780 780 779 780 779 777 780 780 777 775 774 773 775 775 774 775 773 771 771 772 773 775 777 778 778 778 780 781 782 782 783 784 785 785 785 785 785 786 786 785 785 785 785 784 784 783 783 782 782 781 780 780 779 778 778 777 777 776 775 774 774 773 772 771 771 771 771 771 773 774 774 774
785 783 784 787 783 782 785 782 779 780 777 775 779 784 785 784 784 785 783 779 780 781 779 778 777 776 775 775 776 776 774 772 771 771 774 776 777 778 779 779 780 781 781 782 783 783 783 784 784 784 784 784 784 783 783 783 783 782 782 782 781 781 780 779 778 777 776 775 775 775 774 774 773 772 771 770 769 769 768 769 769 769 771 772 772 772
787 784 784 788 785 783 788 791 787 782 777 779 784 785 784 784 786 787 784 781 784 785 782 779 779 778 778 779 779 776 774 772 768 767 774 778 777 778 780 779 779 780 781 781 782 782 782 782 782 782 781 781 781 781 781 781 780 780 779 779 779 779 778 777 776 775 774 773 773 772 772 771 770 769 769 768 767 766 766 766 767 768 769 770 770 770
789 787 787 789 788 785 787 790 783 775 776 784 787 786 786 787 790 792 789 787 791 792 786 782 782 781 780 781 780 777 775 771 767 768 775 778 777 778 779 778 779 779 778 779 779 780 780 779 779 778 778 778 778 778 778 778 777 777 777 776 776 776 775 775 774 773 772 771 770 770 769 769 768 767 766 765 765 764 764 764 764 765 767 768 768 769
788 790 789 789 788 785 786 788 781 774 779 789 789 788 791 791 791 793 793 793 796 794 788 787 786 783 781 781 780 778 774 772 771 774 777 777 776 777 778 778 778 777 777 777 777 777 777 776 775 775 775 775 775 775 775 774 774 773 773 773 773 772 772 771 770 769 769 768 768 767 767 766 765 765 764 763 763 762 762 762 762 764 765 766 766 767
793 795 793 791 791 786 784 787 784 778 783 791 790 787 791 793 791 790 793 795 794 790 789 789 787 784 784 783 781 780 777 776 777 778 778 777 777 776 776 775 775 775 774 774 773 773 773 772 772 772 771 772 772 772 771 771 770 770 770 769 769 769 768 768 767 766 765 765 764 764 764 763 763 762 761 761 761 760 760 760 761 763 764 764 765 767
799 802 798 790 789 790 789 791 792 789 789 793 793 790 792 794 792 790 792 792 789 788 789 788 786 786 785 783 782 781 779 779 780 779 778 777 776 775 775 774 773 772 772 771 770 770 770 769 768 768 768 768 769 768 768 768 767 767 766 766 765 766 765 764 763 763 762 761 761 761 761 760 760 760 759 759 758 758 758 759 760 761 762 763 765 768
800 803 800 791 790 797 797 792 792 793 792 792 795 795 794 794 793 792 792 790 788 788 788 786 785 784 783 782 782 781 780 780 779 778 777 776 775 774 773 773 772 771 770 769 768 768 768 767 765 765 765 765 765 765 765 764 763 763 762 762 762 762 761 760 760 759 758 758 758 758 758 757 757 757 757 756 756 756 756 757 758 759 760 763 765 768
801 802 803 800 798 801 800 793 791 792 791 790 793 793 793 793 793 792 792 790 788 787 786 785 785 784 783 783 783 781 780 779 778 777 776 774 773 772 771 770 770 769 768 767 766 765 765 763 761 761 761 761 761 761 761 760 760 758 758 759 759 759 758 757 756 756 755 755 754 754 754 754 754 754 754 754 754 754 755 756 757 758 761 763 766 769
799 801 806 807 803 800 798 794 793 794 791 790 791 791 791 792 791 790 790 789 788 787 786 786 785 783 783 784 782 780 779 777 775 774 773 772 771 769 768 767 766 765 764 763 762 762 761 760 758 757 757 757 757 757 756 756 755 754 754 755 755 755 754 753 753 752 751 751 751 751 751 751 751 752 752 752 752 753 754 755 755 757 760 763 766 769
799 805 808 807 805 804 801 795 793 794 792 791 791 790 789 789 787 787 789 788 787 787 786 785 784 782 782 781 779 777 775 773 773 772 770 769 768 766 765 763 762 761 761 760 759 759 758 756 755 754 753 753 752 752 752 751 751 750 750 749 749 750 750 749 749 748 747 747 747 748 748 748 749 750 751 751 751 752 753 754 755 757 759 762 765 768
803 809 809 805 803 804 801 795 792 792 791 790 789 788 787 787 786 787 788 788 787 787 785 784 782 780 778 777 776 774 771 770 770 768 767 766 764 762 761 759 758 758 758 757 757 756 755 753 751 750 750 749 748 748 748 746 746 745 744 744 744 745 745 745 745 745 744 744 744 744 744 745 747 748 749 750 751 752 753 754 755 757 760 763 765 768
805 809 807 805 805 802 798 793 791 791 790 788 787 786 786 787 788 788 787 787 786 784 783 782 780 778 776 774 772 771 769 767 766 765 764 762 761 760 758 757 756 756 755 754 754 753 751 749 747 746 746 745 744 744 743 741 741 740 740 740 740 740 741 741 741 742 741 741 741 741 742 744 746 747 748 749 751 752 754 755 757 759 763 766 768 770
807 807 804 805 806 802 796 793 793 796 794 790 787 787 787 788 788 787 786 785 783 782 781 780 779 777 774 772 770 768 766 764 763 762 761 759 758 757 756 755 754 753 752 751 750 748 747 746 744 743 742 741 740 740 738 738 737 736 735 736 735 736 736 736 736 737 737 737 738 739 740 743 745 746 748 749 750 752 754 758 760 762 765 768 770 772
806 806 806 807 806 801 797 795 796 799 796 791 788 788 787 787 787 786 785 784 782 781 781 780 778 776 773 770 768 766 764 763 761 760 759 757 756 755 754 753 752 750 749 748 747 745 744 742 741 740 739 738 737 736 735 734 733 732 731 731 731 731 731 731 732 732 733 734 735 736 738 741 744 746 748 749 750 752 755 758 762 765 767 770 772 774
Wind_Speed
2 4 5 3 0 2 2 2 4 4 3 4 4 5 4 4 4 4 4 4 4 5 3 1 4 4 1 1 3 5 5 7 8 7 7 7 7 7 8 10 10 10 8 10 13 14 16 15 13 12 11 11 12 13 14 14 13 13 12 12 12 12 12 11 10 8 6 5 5 5 5 5 4 4 4 4 4 4 4 4 3 2 2 2 2 2
3 5 2 1 4 3 1 1 1 2 2 5 6 6 5 6 4 5 4 3 2 5 2 2 6 6 3 1 3 6 6 8 9 9 9 9 9 8 9 10 10 10 8 10 12 13 16 16 14 13 12 13 14 14 15 15 15 15 14 13 13 14 14 12 10 8 7 5 5 5 5 5 5 4 4 4 4 4 4 4 4 3 3 3 3 3
6 5 4 5 2 2 2 3 3 3 3 5 6 6 5 4 3 4 5 4 1 4 3 0 6 7 4 4 3 6 7 7 7 8 8 8 9 9 9 10 10 10 10 10 11 13 16 17 16 15 14 15 16 15 16 15 15 16 15 14 14 14 14 13 11 9 7 7 5 5 5 5 4 4 4 5 5 5 5 5 4 4 3 3 4 4
4 3 7 5 2 4 4 4 5 4 4 6 5 6 4 2 3 3 6 5 2 2 4 4 6 7 6 6 6 6 6 4 4 5 6 6 8 9 9 9 9 11 12 12 11 12 14 17 18 17 17 17 17 16 17 17 17 17 17 16 15 16 14 13 12 9 8 9 7 6 6 6 5 5 5 6 6 6 6 5 5 5 5 5 5 5
0 7 6 3 3 5 4 6 7 5 5 5 5 7 4 2 4 4 2 3 3 3 3 6 7 7 6 8 7 6 5 5 5 6 6 6 7 7 8 9 9 10 11 12 12 12 14 17 20 20 19 19 19 18 19 20 19 19 19 17 17 16 14 13 13 11 10 11 10 8 8 7 6 6 6 5 6 5 5 5 6 6 6 6 6 5
2 6 2 3 4 5 5 6 7 6 4 5 7 9 7 3 4 4 1 3 5 5 2 4 7 4 3 5 5 5 6 7 7 6 6 6 6 7 8 9 9 10 10 11 12 13 14 17 19 20 20 20 21 20 20 21 20 20 20 18 17 17 15 14 14 13 12 12 12 12 10 9 8 7 6 5 5 5 5 6 6 6 6 6 6 6
3 4 2 3 4 5 6 6 6 6 7 4 6 8 8 6 5 5 4 4 6 3 2 2 7 3 3 5 4 4 6 7 7 6 4 3 4 6 6 7 7 8 9 10 11 12 13 15 17 19 21 22 22 21 19 19 20 21 20 19 19 17 16 15 15 15 14 13 13 13 11 10 9 7 6 6 6 6 6 6 6 6 6 6 6 6
4 5 4 4 5 6 7 5 5 7 8 1 3 6 8 7 6 6 6 5 5 3 1 5 5 5 5 4 5 4 5 7 8 6 5 3 2 3 4 4 5 6 7 8 10 12 13 14 17 19 21 22 21 20 19 19 21 22 20 20 20 19 18 19 18 17 15 13 14 13 11 10 8 7 7 7 7 7 7 7 7 6 7 6 6 6
4 4 5 5 5 6 5 1 3 8 7 1 3 3 5 5 6 5 6 6 3 3 5 6 4 5 6 3 5 5 7 8 7 4 2 2 2 0 2 4 5 6 7 8 9 10 12 15 17 19 19 20 20 20 20 20 22 22 21 21 22 20 20 21 22 20 16 14 14 13 12 10 9 7 8 8 8 7 7 7 7 7 7 7 7 6
2 2 2 5 6 5 0 5 1 7 4 2 3 4 4 5 4 5 6 6 3 5 8 4 4 5 6 4 5 5 5 4 3 1 1 2 3 3 3 4 6 6 6 8 10 10 11 13 16 17 17 19 20 20 20 19 21 22 21 22 23 22 21 21 23 22 17 16 15 14 13 12 11 9 8 8 8 8 8 8 7 7 7 7 7 8
3 2 0 5 6 2 3 5 2 2 1 3 6 6 6 6 5 5 5 4 4 7 5 3 4 5 6 4 3 1 1 2 3 2 3 4 5 6 6 6 6 6 6 7 8 9 10 11 12 14 16 18 19 19 19 19 21 22 21 23 22 21 20 20 23 23 19 18 16 15 14 13 13 11 10 9 9 9 9 9 8 7 7 8 8 9
4 6 4 4 5 2 2 3 2 1 4 5 6 6 6 5 4 5 5 4 6 7 2 5 4 5 7 3 2 3 3 3 3 3 5 7 7 7 7 7 7 6 7 6 6 7 8 9 10 13 15 17 18 18 19 19 20 21 21 22 21 20 21 20 22 24 21 19 18 16 15 14 14 13 12 10 10 10 9 9 9 8 8 8 9 10
5 5 4 4 5 6 7 5 4 5 6 6 7 6 6 6 5 6 6 5 6 3 4 5 3 5 7 1 5 4 3 3 2 3 5 7 8 8 7 7 6 6 7 6 4 3 5 7 10 12 14 16 17 18 20 18 19 20 20 21 22 23 23 21 22 24 22 20 19 17 15 14 14 14 13 11 10 10 9 9 9 9 9 9 9 10
4 4 6 5 5 6 9 7 4 5 7 8 7 6 7 6 6 7 6 6 6 2 5 4 2 5 6 1 5 4 3 2 1 2 3 5 6 6 6 7 6 6 7 6 4 2 1 4 7 10 12 13 14 16 18 18 19 19 20 23 23 23 23 22 22 23 22 21 19 17 15 14 13 13 13 11 10 10 9 9 10 10 9 9 10 10
5 3 5 3 3 4 8 8 5 4 5 7 6 6 7 6 6 7 6 6 7 2 5 5 3 5 5 2 4 4 4 2 1 2 1 2 3 4 5 6 7 7 7 6 6 5 3 3 5 7 9 9 10 13 15 16 18 18 19 23 22 21 21 22 22 23 22 21 19 17 15 14 12 12 13 12 11 12 12 11 11 10 9 9 10 11
7 4 4 3 2 3 5 4 5 6 6 5 4 7 7 5 6 5 3 3 5 4 2 4 4 3 0 4 5 4 5 5 4 3 3 3 4 4 5 6 7 7 7 7 7 6 6 5 6 6 6 7 9 11 13 14 15 16 19 19 18 18 19 20 21 21 21 20 19 18 18 16 15 13 13 13 13 13 13 12 12 11 11 10 10 11
6 3 6 5 3 2 2 2 3 6 5 2 5 7 3 3 6 6 2 2 1 7 7 5 6 4 3 4 6 7 7 7 6 5 5 5 5 5 6 7 7 7 8 8 8 7 7 7 7 7 5 5 7 9 11 13 14 16 18 16 15 16 15 16 19 18 18 19 17 17 20 21 20 18 16 14 14 14 15 14 13 12 12 11 12 13
4 5 3 3 2 4 1 3 4 5 5 4 5 4 1 2 5 6 5 3 4 8 7 6 9 8 5 4 7 9 9 8 8 7 6 5 5 6 7 7 7 8 9 9 9 9 9 9 9 9 7 5 4 5 7 9 10 13 15 14 13 15 14 14 16 16 17 18 18 20 23 24 22 21 19 16 16 16 16 16 15 13 13 13 13 14
3 7 3 3 1 3 3 4 5 5 5 7 4 1 2 5 6 5 6 7 8 8 7 8 10 9 9 5 8 11 11 11 9 8 8 6 6 6 6 7 8 8 8 9 10 9 9 10 12 11 10 10 8 6 4 4 4 7 10 9 10 12 13 12 13 14 15 17 21 23 23 23 23 22 20 18 17 17 17 18 17 16 15 15 15 15
1 5 2 4 3 1 3 6 7 6 6 5 4 4 5 5 6 6 6 6 8 8 8 9 9 8 7 5 9 12 12 13 11 9 8 7 6 5 5 6 7 8 8 8 9 9 10 11 13 13 12 12 12 10 8 6 3 1 4 6 7 8 10 11 12 13 14 15 19 20 18 21 24 22 18 17 17 18 18 19 19 18 17 17 16 16
2 3 4 3 4 3 5 4 4 5 3 5 6 7 7 5 4 6 7 7 7 9 8 8 9 7 3 1 7 11 11 12 11 10 8 7 6 5 6 6 6 7 7 7 9 9 10 12 14 14 13 14 14 13 12 10 8 5 1 3 5 6 7 10 11 12 13 14 16 17 18 21 23 21 18 16 16 17 18 18 19 19 19 18 18 18
2 3 5 5 4 6 2 3 4 6 5 5 6 7 8 7 6 7 9 8 7 9 8 8 10 6 2 2 3 7 10 10 10 10 8 7 7 6 6 6 6 6 7 8 9 9 10 12 14 15 15 16 16 15 14 14 13 10 5 3 2 3 5 7 9 10 11 12 14 16 18 20 21 21 19 17 17 17 17 16 17 18 19 19 20 20
2 3 6 7 7 8 2 5 2 3 4 6 6 7 7 7 8 9 10 8 7 8 7 8 10 4 4 5 3 6 7 7 8 8 8 8 7 6 6 6 6 6 6 7 8 9 10 12 13 15 15 16 15 15 15 16 15 12 8 8 9 6 2 1 5 7 9 11 12 13 15 17 19 21 20 19 19 18 17 16 16 17 18 19 19 20
0 3 6 7 7 8 4 2 3 2 4 7 7 6 6 7 8 8 8 7 7 9 8 8 10 4 4 4 4 4 4 6 6 7 8 8 6 6 6 6 5 6 6 6 7 8 9 11 12 12 13 14 14 14 15 15 14 11 10 12 13 11 9 6 3 3 6 8 10 11 11 12 16 19 20 19 18 17 17 16 16 16 18 18 18 19
2 4 4 6 7 7 6 6 5 6 6 7 6 4 4 6 7 5 6 6 7 11 11 10 10 4 4 3 2 2 3 5 6 6 7 7 6 6 5 5 5 5 5 6 7 8 9 10 10 11 11 12 12 12 12 12 11 10 10 12 13 12 11 11 9 6 4 5 7 8 8 10 14 18 20 19 17 16 16 16 16 16 17 17 18 18
4 5 4 6 7 6 7 6 3 2 4 5 4 4 4 6 7 6 7 9 8 9 8 9 10 3 5 6 5 4 5 6 7 7 6 6 6 5 5 4 4 4 5 6 6 7 7 8 9 10 10 9 10 10 9 9 9 9 10 11 12 12 12 13 12 11 9 7 6 7 8 11 14 17 19 19 18 17 16 16 17 17 17 17 18 18
4 5 6 9 10 8 9 9 4 6 7 7 6 7 6 5 7 7 7 9 9 8 9 10 11 8 6 9 9 8 8 8 8 9 9 7 7 6 4 3 3 3 4 5 5 5 7 7 8 9 9 9 9 8 8 8 8 8 9 10 10 11 12 12 12 11 10 10 8 6 7 11 13 14 16 17 17 17 17 17 17 18 17 17 18 19
5 6 8 11 12 11 13 13 9 8 10 12 12 11 10 8 8 9 9 10 10 9 10 10 9 10 10 9 10 10 9 9 9 10 10 9 8 7 5 4 3 4 4 4 4 5 6 7 7 8 8 8 8 8 8 8 8 8 8 8 8 9 9 9 8 8 8 8 7 7 7 9 10 11 13 14 14 15 16 17 18 18 17 17 18 20
5 7 8 10 13 13 13 13 11 10 11 13 14 14 13 12 12 12 12 14 13 11 11 11 10 11 9 8 8 8 8 10 10 9 9 8 8 8 7 7 6 5 4 4 5 5 6 6 6 7 7 8 8 8 8 7 7 7 6 6 6 6 6 6 5 5 6 6 6 7 8 10 10 10 11 11 12 14 16 18 18 18 18 17 18 20
4 5 6 9 13 14 14 14 13 13 13 14 15 15 15 15 15 14 14 15 16 16 15 14 12 11 8 9 11 6 4 7 8 7 8 9 10 9 8 8 7 6 5 5 5 5 5 6 6 6 7 7 8 8 8 7 7 6 5 5 5 5 5 5 4 4 5 6 6 7 8 9 10 10 10 10 11 12 14 16 17 17 18 18 18 19
2 3 2 6 11 12 13 14 14 14 15 16 16 17 16 16 16 15 13 13 13 14 14 12 11 9 8 11 12 5 1 4 7 9 10 9 10 10 9 8 7 6 5 5 5 4 5 5 5 6 7 7 7 7 7 7 6 6 5 5 6 5 5 6 6 6 6 7 8 8 9 9 10 10 10 10 10 11 12 14 15 16 17 17 18 18
3 5 4 6 9 10 11 13 14 14 16 18 18 17 17 16 15 13 12 12 12 12 12 12 12 9 7 10 12 8 5 7 10 10 9 8 9 10 10 8 8 7 5 5 4 4 4 5 5 6 7 7 7 7 6 6 6 6 5 6 6 6 7 7 7 7 8 9 9 10 10 10 10 11 11 10 10 10 11 11 13 15 16 16 17 16
4 6 6 7 9 9 8 9 9 9 12 12 10 10 13 15 15 15 14 14 15 13 11 11 10 6 4 4 8 9 10 11 10 7 6 7 9 9 9 8 8 6 5 4 3 3 4 4 5 6 7 7 7 7 7 7 7 6 6 6 6 6 7 8 7 8 8 9 11 11 11 11 11 11 11 11 11 10 11 11 12 13 14 15 15 15
5 6 6 7 8 8 8 6 6 8 10 5 2 3 3 7 10 13 13 12 11 9 8 10 9 6 5 4 6 8 7 5 3 2 3 5 6 8 8 8 7 5 3 2 1 2 3 4 5 6 6 6 6 7 7 7 7 6 6 7 7 7 8 8 8 8 9 10 11 11 12 12 12 12 12 12 11 11 11 11 11 11 13 15 15 15
6 6 6 6 6 7 7 6 8 9 4 2 4 4 2 3 5 7 7 5 5 5 7 8 8 7 5 4 4 3 2 1 3 4 4 4 4 5 6 7 6 4 2 1 1 3 4 5 6 7 7 7 7 7 7 7 7 8 8 8 8 9 9 9 9 9 10 11 12 12 12 12 12 12 12 12 12 12 12 11 11 11 13 15 15 16
7 6 6 6 6 7 6 7 9 6 2 1 1 1 1 2 4 5 4 1 4 4 4 4 4 4 3 2 1 1 1 3 4 4 5 5 4 3 3 3 2 1 2 3 3 4 6 7 7 8 7 7 8 8 9 9 9 9 10 10 10 10 11 11 10 11 11 11 11 11 11 12 12 13 13 13 13 13 13 12 11 11 13 14 14 14
8 7 6 7 7 7 8 9 9 8 8 7 4 2 3 2 3 4 5 1 4 4 3 3 2 3 2 1 0 0 2 5 6 5 6 6 5 4 2 2 1 2 3 4 5 6 7 7 7 8 8 8 9 9 10 10 10 10 11 11 11 12 12 12 12 12 13 12 12 11 11 12 13 13 13 13 14 14 13 12 12 12 14 15 14 13
7 7 6 7 6 6 8 9 8 10 9 3 3 4 4 2 2 4 5 3 3 4 4 4 3 3 3 2 2 2 4 7 7 5 6 5 4 4 3 3 3 4 5 6 7 7 8 8 8 9 9 10 10 10 11 11 11 12 12 12 12 13 13 13 13 14 14 13 13 13 13 13 14 15 14 14 14 14 13 12 12 13 14 16 14 13
5 6 6 7 7 7 8 8 8 9 5 3 5 4 4 3 2 4 6 4 2 6 6 5 4 4 4 3 4 4 5 8 8 5 5 5 5 5 5 5 6 7 7 7 8 8 9 10 10 11 11 11 11 12 12 12 13 13 13 12 12 13 13 13 14 15 15 14 14 14 15 15 15 16 16 16 15 14 14 13 12 13 15 15 13 13
6 5 6 8 8 8 9 8 8 7 2 4 5 5 6 4 2 4 6 3 4 8 8 6 6 6 5 5 5 5 6 7 6 1 6 7 7 7 7 8 9 10 11 11 10 10 11 12 12 12 12 12 13 13 13 13 14 14 14 14 14 14 14 14 15 16 15 14 14 15 15 15 16 16 16 16 15 15 14 13 12 14 15 14 13 15
5 5 6 7 8 9 10 9 8 6 1 5 5 5 5 2 2 5 5 2 4 8 8 8 9 8 7 7 6 6 7 8 7 7 9 10 9 9 10 11 12 12 13 14 13 13 14 14 14 14 15 15 15 15 14 14 15 15 15 15 15 15 15 16 17 16 15 15 15 15 15 16 16 17 16 16 16 15 14 13 14 15 14 13 14 16
5 4 6 7 7 8 8 8 9 6 3 6 5 3 1 2 4 3 3 3 6 8 9 9 10 9 9 9 8 7 9 9 9 10 10 11 11 11 13 14 15 15 15 16 16 16 16 16 16 16 17 16 16 15 15 15 16 16 16 16 17 16 17 18 17 17 16 16 15 15 16 16 17 17 17 16 15 15 15 15 14 14 14 14 15 19
3 4 6 6 6 7 7 8 8 5 2 5 6 3 0 3 5 5 5 7 9 9 9 9 9 9 9 10 9 10 11 11 10 10 11 11 12 12 14 16 16 17 18 19 19 19 18 18 18 19 18 18 17 16 15 16 17 17 18 18 18 17 18 18 18 17 17 17 16 16 16 17 18 18 17 16 16 17 17 14 12 13 16 17 19 23
4 4 6 5 3 4 6 6 4 3 2 4 5 4 4 6 7 7 9 9 10 9 9 9 9 10 10 10 11 13 13 13 13 12 11 12 12 13 14 16 17 19 19 20 20 20 19 20 20 20 20 19 18 17 17 17 19 19 20 20 19 18 19 19 18 18 18 17 17 17 18 18 19 18 17 18 18 16 13 11 11 14 17 20 23 25
1 2 5 5 3 4 7 7 7 7 7 7 6 7 8 9 9 9 10 10 10 10 9 9 10 11 11 11 13 13 13 14 15 14 14 14 13 14 15 17 19 21 21 21 22 20 20 21 22 21 21 20 19 19 19 19 20 21 21 20 19 19 20 20 19 18 18 18 18 18 19 19 18 17 18 18 15 12 10 11 12 15 18 21 24 26
3 4 5 6 6 8 10 9 9 10 11 10 10 10 11 11 9 9 10 11 10 10 11 11 12 12 12 13 13 13 14 15 16 17 17 16 15 17 18 19 21 22 22 22 22 21 21 23 23 23 23 22 21 21 21 21 21 22 22 21 21 21 21 20 20 20 20 20 20 19 19 18 17 17 16 13 11 11 12 14 16 18 21 23 26 28
3 2 4 7 8 8 7 6 7 10 12 12 13 12 12 12 10 10 10 11 12 13 13 13 14 14 14 14 14 15 16 17 17 17 17 16 16 17 17 19 21 22 22 22 22 21 22 22 23 23 23 23 22 21 21 21 22 22 23 23 23 23 22 22 22 22 21 21 20 19 18 18 15 12 10 9 10 11 12 14 19 24 27 29 28 26
2 3 4 8 8 8 9 10 12 14 14 13 13 11 10 11 11 12 12 13 14 15 15 15 15 15 14 14 15 16 17 18 18 18 16 15 15 15 16 19 21 21 22 22 21 21 22 23 24 24 24 23 22 21 22 23 24 24 24 24 23 22 21 22 23 22 21 20 19 18 17 15 12 11 9 10 11 13 14 18 23 29 30 29 28 25
5 5 6 8 8 9 11 12 12 12 12 13 13 12 11 11 13 15 16 16 16 16 16 17 18 17 16 16 17 17 18 18 18 18 18 16 15 15 17 20 22 22 22 22 22 22 22 24 26 26 26 26 24 24 24 25 26 25 25 24 23 21 21 22 22 23 22 20 18 16 13 11 11 11 12 13 15 17 19 22 27 29 27 24 24 23
6 7 6 6 8 8 9 10 11 11 11 12 13 14 15 15 15 17 16 16 16 16 16 17 18 19 20 20 19 18 18 18 17 18 17 15 15 17 20 22 23 23 23 23 23 24 25 26 27 28 28 27 26 26 26 26 26 25 24 23 22 21 21 22 22 23 22 20 17 13 11 11 12 13 16 19 23 25 24 24 27 28 26 23 21 20
6 7 7 7 8 9 11 13 12 11 12 13 15 17 18 16 16 17 17 16 16 16 16 17 18 18 19 20 20 19 16 16 18 19 17 17 20 22 24 24 24 24 24 25 25 26 27 28 28 28 28 28 27 27 26 25 25 24 24 23 22 22 22 22 21 20 19 17 15 14 14 15 16 18 19 21 24 25 24 23 24 24 23 22 21 20
Wind_Direction
257 238 223 238 335 57 44 335 332 346 329 280 247 240 235 227 206 128 96 70 13 293 220 159 287 265 274 25 155 175 193 216 217 210 216 220 221 219 216 216 213 210 188 163 168 171 178 183 176 175 178 176 180 190 193 191 188 186 183 177 174 176 174 173 175 177 179 179 170 165 161 149 141 134 125 116 98 93 94 98 106 105 109 123 139 169
241 245 213 43 27 48 102 187 279 290 261 241 238 231 223 231 209 114 99 97 38 292 218 147 272 250 230 249 162 171 199 214 215 214 218 221 226 228 226 224 219 214 191 165 167 172 179 185 180 177 180 182 184 189 191 189 187 186 185 182 179 178 178 179 180 177 175 174 170 165 156 147 140 129 121 116 104 100 100 96 91 86 87 98 111 119
223 235 119 87 61 110 152 189 204 231 234 226 231 235 226 219 198 126 126 135 97 285 261 191 277 263 242 242 201 189 206 207 208 220 225 225 228 229 231 230 225 218 203 183 177 176 181 186 185 183 185 189 190 188 187 187 186 184 185 186 183 181 180 181 183 179 171 167 162 155 145 137 132 117 99 99 105 108 102 95 85 80 81 92 99 100
228 148 109 104 145 170 166 180 202 212 216 222 223 230 225 176 219 202 145 145 144 287 296 305 280 268 244 228 216 201 206 194 191 223 235 241 241 238 241 239 231 225 214 203 191 181 183 186 188 190 190 189 188 187 185 186 185 183 187 188 184 182 182 182 184 179 169 168 162 152 143 134 127 120 112 108 111 111 105 96 85 84 89 93 95 93
254 90 102 140 188 207 189 176 204 225 208 206 225 243 242 167 239 266 122 148 194 188 269 285 266 255 233 225 215 184 193 208 201 214 222 231 242 247 254 252 243 236 228 219 205 191 187 190 191 193 191 186 187 189 187 186 185 184 187 188 183 182 183 183 183 178 172 172 164 154 153 146 135 130 133 134 127 122 115 103 95 96 97 93 92 90
93 86 137 195 197 217 212 195 207 236 236 200 209 233 251 240 232 255 237 234 240 202 172 295 275 250 184 212 210 169 189 202 193 201 209 209 218 230 242 246 247 244 240 236 223 207 197 194 194 193 191 188 190 191 188 186 185 184 185 185 181 180 183 185 186 183 177 173 166 162 164 160 154 151 151 148 138 134 122 112 111 107 103 98 94 91
96 113 190 216 212 210 222 224 193 218 251 221 184 206 227 235 224 232 231 235 259 248 124 280 278 270 192 199 170 160 197 193 176 174 174 188 213 227 237 240 246 247 246 245 238 227 212 201 196 195 193 192 193 191 186 184 183 183 184 183 181 180 181 184 188 188 182 179 174 172 174 167 162 157 149 142 135 132 123 117 120 117 111 107 101 96
127 150 180 216 230 220 229 226 175 211 247 251 120 191 210 215 213 222 232 239 270 303 204 216 257 277 256 221 141 161 222 209 188 166 147 157 193 237 263 264 266 265 259 254 244 235 225 213 206 200 195 194 193 186 181 182 182 183 183 183 182 181 183 187 192 191 187 186 181 179 180 170 164 154 144 144 137 132 128 124 125 124 120 113 106 102
156 192 198 218 237 237 239 69 142 218 238 50 80 206 209 208 213 218 241 252 260 289 257 213 211 260 257 214 153 186 224 212 190 163 128 118 112 136 295 297 294 285 275 266 255 244 233 224 215 207 198 193 190 184 182 183 182 180 182 184 184 185 187 190 194 194 191 191 186 183 182 172 166 156 147 151 145 139 137 131 130 129 126 118 110 107
158 217 241 244 249 249 298 52 52 233 230 92 142 186 184 189 206 221 250 264 233 256 268 211 180 266 269 219 189 194 210 202 165 99 14 32 32 14 357 327 309 298 285 271 262 254 242 232 222 211 199 190 185 183 182 181 180 179 181 185 188 189 189 190 194 195 193 194 191 188 187 177 169 162 159 159 152 151 148 142 141 139 135 128 119 117
138 133 188 249 256 298 62 70 28 271 171 147 180 190 190 193 204 222 245 270 255 251 253 156 167 264 270 235 200 137 67 13 351 334 346 352 350 357 355 338 329 321 309 287 271 258 242 233 222 210 198 186 180 178 177 179 180 180 181 187 190 190 190 191 194 195 195 196 196 194 190 183 175 169 169 169 164 164 162 154 153 151 147 140 132 130
185 192 180 202 227 229 169 156 117 164 185 193 208 215 219 215 214 232 223 217 251 254 158 116 155 233 253 239 116 91 68 33 336 324 335 332 337 351 349 340 341 335 323 306 289 266 233 216 203 199 194 186 178 175 176 179 179 180 182 186 186 188 191 193 194 196 196 198 200 199 194 188 181 176 176 181 178 175 171 166 162 159 157 152 147 144
224 202 146 149 188 209 223 205 156 175 199 215 227 227 236 236 226 240 238 229 246 242 110 117 162 227 250 214 101 107 85 58 359 336 331 329 335 343 345 346 350 348 340 327 314 287 228 202 189 189 190 188 183 179 179 179 178 180 183 184 186 190 194 193 193 196 198 200 202 202 198 192 187 185 184 186 187 185 181 175 170 168 168 166 162 159
237 159 147 172 170 194 228 222 192 193 198 214 228 230 242 247 242 245 246 248 253 201 108 124 182 241 246 124 90 96 85 63 27 3 340 336 338 341 351 358 6 11 2 354 359 2 216 187 180 183 185 186 185 181 180 179 179 182 182 187 192 194 194 192 193 196 200 203 205 205 203 198 193 191 190 192 193 192 193 186 180 179 179 177 175 171
265 195 158 178 128 169 222 242 281 287 218 221 236 243 250 253 254 260 261 262 265 227 123 140 188 251 247 120 89 99 108 107 97 81 54 9 2 4 11 15 20 24 19 17 28 40 63 119 146 160 167 172 177 178 178 179 182 183 185 193 198 195 193 192 193 196 201 204 205 207 207 203 199 197 195 198 199 196 197 193 188 187 186 185 182 177
266 257 103 86 81 168 225 253 289 283 246 220 234 245 253 258 253 263 291 309 302 285 212 187 221 261 142 116 121 133 138 136 128 120 116 84 59 45 36 34 31 30 30 31 37 46 61 90 108 125 146 160 168 171 174 179 183 185 190 197 199 194 192 193 194 197 199 202 204 206 208 207 204 202 200 201 201 199 201 199 195 193 190 187 182 178
255 246 105 113 139 140 293 293 229 257 264 200 231 244 251 288 266 259 247 102 285 270 259 236 241 234 165 163 156 154 155 148 145 138 120 91 74 65 49 39 37 39 41 42 44 44 50 68 85 98 121 149 165 171 178 184 187 191 196 198 196 194 192 192 195 197 198 201 204 207 212 214 212 210 207 202 198 201 206 206 204 201 194 187 182 178
279 268 157 170 184 110 60 275 214 234 266 251 244 242 168 246 256 250 255 234 229 257 257 234 239 239 236 209 158 164 170 158 154 144 125 106 86 72 57 46 41 45 48 52 54 49 45 52 65 80 88 96 127 156 173 185 189 195 202 201 194 194 193 191 193 198 199 200 205 212 218 221 220 219 217 211 205 205 209 209 207 205 198 190 184 180
288 268 209 160 223 126 144 232 224 197 230 262 287 293 222 250 245 227 246 255 250 258 258 243 239 241 252 226 162 177 182 163 157 150 135 117 94 76 64 53 44 45 48 52 56 53 50 50 53 64 76 81 83 87 107 151 185 200 209 208 198 196 197 196 197 201 203 203 210 217 222 223 225 225 223 218 213 208 210 212 209 207 203 195 188 184
245 265 243 130 125 164 204 227 240 211 195 227 259 245 237 264 269 251 250 258 260 262 263 261 251 245 258 229 180 187 181 166 162 153 137 116 97 81 67 56 45 46 46 49 58 60 59 58 56 56 63 74 76 74 79 85 85 194 225 222 213 206 204 205 205 206 209 211 216 220 222 225 228 228 226 223 220 215 215 215 211 208 206 201 195 190
222 247 258 198 144 227 241 222 272 288 235 223 235 234 230 236 260 265 256 250 257 264 263 267 263 259 280 230 196 191 173 164 162 151 139 123 106 88 73 62 52 53 50 49 59 64 66 69 69 66 64 67 67 64 67 73 73 63 10 231 216 219 219 217 216 216 218 218 221 225 227 230 232 232 231 229 226 225 222 217 212 210 208 205 201 196
271 245 257 262 237 245 255 71 3 334 322 286 267 255 250 246 250 258 254 244 244 261 266 268 270 275 25 39 181 165 155 156 155 148 140 129 116 102 84 71 61 59 58 58 62 64 65 68 73 75 73 72 72 68 66 68 68 63 54 80 126 192 222 229 231 232 232 228 226 230 234 236 237 237 237 233 231 231 227 220 215 211 208 205 204 201
341 271 258 262 258 262 323 66 44 310 300 285 276 273 273 263 254 254 259 260 254 260 271 272 270 277 64 46 69 122 134 139 143 146 142 132 121 112 100 88 78 69 63 65 66 67 67 68 72 75 75 76 77 76 72 70 69 65 60 67 69 65 68 243 249 250 249 242 237 237 239 241 243 242 239 235 233 232 229 225 219 214 211 208 205 203
212 258 256 257 255 260 255 144 159 189 246 258 249 252 268 271 270 270 276 285 270 261 265 263 260 249 93 64 58 92 115 125 135 147 146 137 127 123 115 102 93 83 75 72 71 70 72 72 71 71 72 72 71 70 69 71 74 71 63 65 63 55 49 44 13 293 264 255 252 251 249 251 256 254 248 241 236 231 228 227 223 219 216 213 209 205
242 252 254 263 260 249 233 217 203 196 217 244 249 249 271 277 279 281 278 274 261 261 262 259 261 252 114 118 143 130 137 148 149 149 148 144 141 137 125 111 103 96 88 82 76 74 73 72 71 68 66 68 68 68 69 69 71 68 60 60 62 53 44 41 33 9 320 280 270 268 268 268 268 264 258 252 246 239 233 230 228 225 221 217 212 208
259 268 260 263 263 253 250 250 246 243 240 238 245 252 260 264 263 264 264 256 251 260 259 253 261 254 128 150 183 172 168 171 160 158 162 156 150 146 134 126 116 104 95 87 82 79 76 73 73 71 68 68 70 71 73 72 67 60 53 52 54 49 41 35 29 18 5 348 321 302 291 275 264 260 258 256 255 251 245 238 232 228 223 218 215 211
256 265 255 257 262 266 273 279 320 341 301 271 264 259 249 250 257 262 262 255 256 261 251 248 258 253 205 190 192 183 183 185 174 176 181 170 160 158 147 139 130 115 102 90 85 84 83 77 71 69 67 65 66 66 67 68 63 59 54 47 45 44 39 31 23 15 6 357 344 322 296 277 267 265 264 261 261 259 254 249 241 235 228 221 217 213
254 254 250 254 259 267 277 283 294 303 285 277 277 272 263 254 247 248 253 261 271 270 259 260 262 252 242 226 206 189 186 192 189 189 190 177 168 166 156 155 157 142 122 102 91 82 78 77 69 64 61 57 56 58 58 57 54 53 52 48 43 43 42 34 20 6 355 348 339 324 307 294 288 283 275 270 267 264 259 254 249 242 235 225 219 213
265 263 260 259 262 266 270 273 273 271 269 269 270 269 268 263 252 248 251 257 264 262 263 279 274 251 246 254 245 220 202 207 205 196 190 178 170 169 167 172 170 156 139 116 98 80 69 66 60 55 50 44 40 41 45 47 46 44 46 48 47 45 43 35 18 355 341 334 324 317 313 307 301 292 282 274 267 263 259 256 250 244 239 229 219 213
281 275 272 269 270 271 269 266 263 260 260 261 260 259 259 259 257 256 254 256 259 260 263 277 280 260 249 267 275 269 229 226 221 198 185 179 175 173 174 177 171 159 149 125 102 87 74 64 57 50 41 33 28 25 26 28 27 26 30 33 30 31 29 16 2 347 334 327 321 312 305 299 293 287 283 277 268 261 258 255 251 246 240 234 227 222
259 277 300 282 276 273 271 268 262 258 259 260 259 256 256 256 255 254 255 256 258 262 265 267 271 265 257 261 265 264 191 226 220 200 191 184 177 175 178 178 171 161 149 128 107 93 77 65 53 40 29 23 19 15 15 13 6 5 12 9 2 1 359 352 347 341 331 324 319 311 303 296 291 287 284 278 271 265 258 254 251 247 242 238 234 229
244 266 274 271 270 272 272 268 265 267 270 266 261 256 252 252 252 252 253 252 250 257 263 260 260 267 269 259 251 239 222 230 229 217 200 181 173 178 182 178 170 160 145 127 106 84 66 52 41 29 16 9 4 2 3 357 348 349 353 348 344 342 341 341 336 329 326 322 315 309 304 299 295 294 291 284 276 268 261 255 251 249 245 239 235 228
256 268 272 268 269 275 277 277 281 284 277 269 266 258 248 248 255 257 255 253 251 251 256 259 265 290 327 289 261 256 252 248 245 233 203 179 175 182 185 179 170 156 138 122 101 76 56 34 25 17 5 355 350 349 347 339 333 334 335 331 330 331 332 332 326 320 318 314 311 307 303 300 297 294 293 288 281 271 261 255 249 246 245 240 234 229
254 261 268 268 269 272 275 286 291 275 264 266 14 20 281 267 273 271 267 268 269 269 276 281 284 298 311 294 282 285 282 268 242 183 170 173 177 181 185 182 173 162 153 143 84 50 32 13 3 357 348 340 337 333 326 320 318 319 319 320 323 325 324 321 318 313 307 304 305 302 297 296 294 291 290 287 281 272 262 254 248 244 244 240 232 229
248 251 258 260 261 269 275 272 261 259 263 65 75 62 23 317 299 292 289 307 329 320 302 295 294 298 301 292 284 293 312 121 149 161 163 162 166 177 188 192 193 199 219 265 333 350 351 343 336 334 330 326 323 316 310 309 311 311 312 316 318 317 316 313 309 305 301 298 297 296 295 294 290 287 285 283 278 272 264 257 249 245 243 238 229 225
245 246 253 255 252 257 260 249 248 263 340 28 198 74 42 267 269 279 265 99 46 358 317 307 305 313 330 337 295 258 192 170 169 163 145 127 115 124 163 178 193 256 308 328 332 331 328 322 319 318 317 315 312 308 306 307 307 306 306 308 309 309 309 308 303 301 298 294 292 292 292 291 289 285 280 277 274 269 263 256 247 243 243 239 228 218
239 246 248 249 247 249 256 255 258 273 282 268 252 60 31 312 309 305 276 230 67 31 356 352 332 311 313 312 72 45 207 200 187 155 124 109 97 86 78 64 22 337 325 323 319 315 312 309 310 310 309 308 304 303 302 300 298 297 296 298 300 302 304 302 299 299 297 294 294 293 291 290 287 282 277 273 269 264 259 252 245 241 242 238 226 210
228 242 244 246 246 245 258 266 267 268 273 286 81 70 41 356 334 309 278 252 78 50 14 360 350 326 312 305 313 290 234 226 218 171 120 87 68 51 12 349 340 326 321 319 314 310 308 309 306 301 299 297 294 292 292 291 290 288 285 286 289 292 295 295 295 296 295 294 295 294 293 290 285 281 276 270 266 262 255 247 243 241 239 232 221 207
213 236 241 249 252 248 254 263 263 264 272 65 71 47 31 13 331 295 259 236 44 22 360 343 333 318 315 329 324 295 256 244 231 169 92 30 2 357 335 324 324 319 313 312 311 310 311 309 302 295 292 289 287 288 286 284 283 280 276 277 279 283 285 286 288 290 290 290 292 292 291 289 284 279 274 268 266 261 253 245 241 240 237 227 210 196
207 225 234 244 249 250 253 257 262 271 298 70 54 28 30 30 351 281 255 249 6 354 341 335 323 307 303 315 312 287 266 261 258 347 20 346 327 329 325 319 320 316 309 308 309 309 308 304 300 298 295 292 290 289 286 283 280 275 272 271 272 275 277 278 282 285 284 283 286 288 288 286 281 276 271 267 266 260 252 246 238 234 230 217 198 191
226 229 239 248 252 252 254 256 263 270 82 79 46 27 32 17 257 255 261 309 345 327 328 331 317 304 298 296 290 277 276 281 295 321 329 319 313 316 314 310 309 306 305 306 307 308 305 301 299 297 294 291 290 288 286 283 278 273 271 270 269 270 272 276 279 280 277 276 279 283 285 283 279 274 270 266 265 260 253 245 238 230 220 203 192 189
254 250 250 253 256 257 257 259 266 267 85 64 13 359 24 260 259 273 307 314 307 312 320 317 308 306 301 293 287 283 284 288 295 301 305 306 308 309 308 308 307 305 305 305 305 304 301 297 294 291 288 287 286 284 283 279 275 273 271 268 268 269 271 274 275 273 271 270 272 277 281 280 277 274 270 266 262 257 249 240 232 222 207 192 183 177
276 275 262 254 257 262 257 253 261 265 67 40 351 332 304 283 299 323 318 302 305 315 314 304 300 296 288 285 286 285 283 284 287 289 292 296 298 300 302 304 304 304 304 303 300 299 296 291 287 285 284 283 281 279 278 275 273 272 269 266 267 269 270 271 270 268 266 265 267 273 276 277 275 271 266 263 259 253 243 229 215 207 200 191 178 168
270 270 271 270 272 265 252 251 281 319 11 4 333 310 301 303 307 309 303 299 303 306 301 299 297 290 285 284 284 284 283 282 285 288 290 290 290 293 294 295 295 295 295 294 293 292 289 284 281 280 279 278 276 274 272 270 271 270 267 268 269 270 269 268 265 262 260 259 262 267 271 274 272 266 261 260 255 244 228 208 196 193 190 182 171 160
269 287 290 286 284 279 270 278 305 309 295 299 305 297 296 297 295 296 295 291 292 294 296 298 297 295 294 290 285 282 280 279 282 284 285 287 289 289 288 288 288 288 287 286 285 285 282 280 278 279 278 275 273 270 267 266 268 268 268 269 270 270 268 266 263 259 257 256 258 261 266 269 266 261 261 256 240 217 197 184 177 172 168 164 159 153
283 299 295 283 280 285 278 274 283 285 283 290 295 293 293 292 289 292 292 288 288 290 291 291 291 291 292 289 286 282 278 278 280 280 281 284 284 285 286 285 284 283 282 281 281 282 281 279 279 279 277 275 272 269 266 265 264 265 267 269 269 268 267 265 264 261 258 258 258 257 260 262 262 261 256 239 211 195 191 182 169 160 155 152 151 149
297 346 304 280 278 283 278 272 280 285 287 293 294 292 290 286 285 289 289 289 291 290 288 287 287 287 287 284 282 280 278 279 279 280 281 282 281 281 282 282 282 283 282 282 283 283 281 279 279 278 276 275 272 270 268 266 263 264 266 266 266 266 264 263 263 260 258 257 254 251 253 254 252 246 229 203 191 188 184 174 163 156 152 150 150 150
355 27 308 284 280 280 280 284 287 288 289 291 290 288 288 290 294 296 293 291 290 287 285 283 281 281 282 282 280 281 280 280 280 280 281 281 281 282 282 282 283 284 283 283 283 281 279 279 280 280 279 278 276 273 272 270 268 267 267 266 266 265 262 260 260 257 255 253 247 246 248 242 224 208 196 190 184 171 160 155 153 150 150 152 152 149
313 306 293 291 288 281 280 285 290 292 292 290 288 289 293 298 302 302 299 296 291 287 286 284 282 280 280 279 279 279 280 280 280 281 282 282 283 284 284 285 287 286 285 284 283 280 279 280 281 281 280 279 279 278 276 274 272 270 269 267 265 261 258 257 254 251 249 247 245 243 235 215 198 191 184 171 156 146 143 145 144 141 139 142 144 140
296 289 292 293 285 281 286 296 302 302 294 290 293 296 299 302 304 302 300 298 295 294 295 294 291 287 283 279 277 277 278 280 281 282 283 284 283 284 286 287 288 287 285 285 284 283 282 281 281 280 280 280 280 280 278 277 275 272 269 266 263 259 255 250 246 245 243 241 239 227 200 184 182 176 162 147 135 130 129 133 137 137 135 135 138 139
304 297 298 291 285 286 292 299 302 298 289 291 296 299 300 304 305 300 297 295 297 299 301 301 299 296 289 283 280 278 278 280 282 284 285 285 284 285 286 287 287 286 286 286 287 286 284 282 281 281 280 280 280 279 277 277 274 271 268 266 263 259 254 249 245 244 241 234 223 203 183 174 168 157 144 134 130 127 124 123 128 133 138 141 145 146